[keps] orb10287.amsat
Ray Hoad
ray.hoad at mypbmail.com
Thu Oct 14 19:33:35 PDT 2010
SB KEPS @ AMSAT $ORB10287.O
Orbital Elements 10287.OSCAR
HR AMSAT ORBITAL ELEMENTS FOR OSCAR SATELLITES
FROM WA5QGD FORT WORTH,TX October 14, 2010
BID: ORB10287.O
TO ALL RADIO AMATEURS BT
Satellite: AO-07
Catalog number: 07530
Epoch time: 10286.55530713
Element set: 901
Inclination: 101.3999 deg
RA of node: 297.8228 deg
Eccentricity: 0.0012211
Arg of perigee: 042.0549 deg
Mean anomaly: 318.1460 deg
Mean motion: 12.53579950 rev/day
Decay rate: -2.7e-07 rev/day^2
Epoch rev: 64328
Checksum: 292
Satellite: FO-29
Catalog number: 24278
Epoch time: 10287.68459766
Element set: 416
Inclination: 098.5161 deg
RA of node: 100.3244 deg
Eccentricity: 0.0350687
Arg of perigee: 173.7322 deg
Mean anomaly: 186.8382 deg
Mean motion: 13.52953585 rev/day
Decay rate: -3.4e-07 rev/day^2
Epoch rev: 69926
Checksum: 345
Satellite: SO-33
Catalog number: 25509
Epoch time: 10286.79765595
Element set: 813
Inclination: 031.4337 deg
RA of node: 197.7733 deg
Eccentricity: 0.0354791
Arg of perigee: 247.0163 deg
Mean anomaly: 109.2697 deg
Mean motion: 14.28330746 rev/day
Decay rate: 4.2e-07 rev/day^2
Epoch rev: 62502
Checksum: 323
Satellite: RS-22
Catalog number: 27939
Epoch time: 10287.63996136
Element set: 632
Inclination: 097.8728 deg
RA of node: 147.9459 deg
Eccentricity: 0.0014519
Arg of perigee: 045.0533 deg
Mean anomaly: 315.1852 deg
Mean motion: 14.63462222 rev/day
Decay rate: 1.30e-06 rev/day^2
Epoch rev: 37642
Checksum: 319
Satellite: VO-52
Catalog number: 28650
Epoch time: 10285.29329997
Element set: 0620
Inclination: 097.6779 deg
RA of node: 334.0756 deg
Eccentricity: 0.0025807
Arg of perigee: 253.5434 deg
Mean anomaly: 106.2946 deg
Mean motion: 14.81821383 rev/day
Decay rate: -7.0e-08 rev/day^2
Epoch rev: 29403
Checksum: 328
Satellite: SO-67
Catalog number: 35870
Epoch time: 10287.85349817
Element set: 194
Inclination: 097.3175 deg
RA of node: 333.7380 deg
Eccentricity: 0.0004337
Arg of perigee: 055.8857 deg
Mean anomaly: 053.2199 deg
Mean motion: 15.21107435 rev/day
Decay rate: 1.087e-05 rev/day^2
Epoch rev: 5964
Checksum: 334
Satellite: HO-68
Catalog number: 36122
Epoch time: 10287.65690675
Element set: 754
Inclination: 100.4555 deg
RA of node: 346.8012 deg
Eccentricity: 0.0007863
Arg of perigee: 065.1810 deg
Mean anomaly: 295.0130 deg
Mean motion: 13.16282137 rev/day
Decay rate: -4.5e-07 rev/day^2
Epoch rev: 3993
Checksum: 294
/EX
SB KEPS @ AMSAT $ORB10287.D
Orbital Elements 10287.MICROS
HR AMSAT ORBITAL ELEMENTS FOR THE MICROSATS
FROM WA5QGD FORT WORTH,TX October 14, 2010
BID: ORB10287.D
TO ALL RADIO AMATEURS BT
Satellite: UO-11
Catalog number: 14781
Epoch time: 10287.70360708
Element set: 364
Inclination: 098.0401 deg
RA of node: 339.7133 deg
Eccentricity: 0.0008463
Arg of perigee: 206.7133 deg
Mean anomaly: 153.3666 deg
Mean motion: 14.79842566 rev/day
Decay rate: -1.45e-06 rev/day^2
Epoch rev: 42948
Checksum: 309
Satellite: AO-16
Catalog number: 20439
Epoch time: 10287.47231717
Element set: 17
Inclination: 098.3474 deg
RA of node: 240.7714 deg
Eccentricity: 0.0010800
Arg of perigee: 167.5332 deg
Mean anomaly: 192.6120 deg
Mean motion: 14.31877791 rev/day
Decay rate: 3.5e-07 rev/day^2
Epoch rev: 8245
Checksum: 286
Satellite: LO-19
Catalog number: 20442
Epoch time: 10287.80028525
Element set: 927
Inclination: 098.3105 deg
RA of node: 246.4093 deg
Eccentricity: 0.0012124
Arg of perigee: 161.2847 deg
Mean anomaly: 198.8785 deg
Mean motion: 14.32107200 rev/day
Decay rate: 1.9e-07 rev/day^2
Epoch rev: 8267
Checksum: 291
Satellite: AO-27
Catalog number: 22825
Epoch time: 10286.39007986
Element set: 0651
Inclination: 098.4984 deg
RA of node: 231.3496 deg
Eccentricity: 0.0007559
Arg of perigee: 283.5591 deg
Mean anomaly: 076.4744 deg
Mean motion: 14.29310504 rev/day
Decay rate: -1.04e-06 rev/day^2
Epoch rev: 88893
Checksum: 341
Satellite: IO-26
Catalog number: 22826
Epoch time: 10286.85427015
Element set: 0388
Inclination: 098.4923 deg
RA of node: 232.3606 deg
Eccentricity: 0.0008031
Arg of perigee: 276.3760 deg
Mean anomaly: 083.6509 deg
Mean motion: 14.29568848 rev/day
Decay rate: 1.8e-07 rev/day^2
Epoch rev: 88911
Checksum: 329
Satellite: GO-32
Catalog number: 25397
Epoch time: 10286.70582071
Element set: 0307
Inclination: 098.3170 deg
RA of node: 287.6506 deg
Eccentricity: 0.0000263
Arg of perigee: 309.0398 deg
Mean anomaly: 051.0765 deg
Mean motion: 14.23186392 rev/day
Decay rate: -5.4e-07 rev/day^2
Epoch rev: 63690
Checksum: 301
Satellite: NO-44
Catalog number: 26931
Epoch time: 10286.92644904
Element set: 0583
Inclination: 067.0528 deg
RA of node: 258.0437 deg
Eccentricity: 0.0005532
Arg of perigee: 271.3822 deg
Mean anomaly: 088.6657 deg
Mean motion: 14.29615936 rev/day
Decay rate: 2.22e-06 rev/day^2
Epoch rev: 47172
Checksum: 320
Satellite: SO-50
Catalog number: 27607
Epoch time: 10286.66388876
Element set: 0292
Inclination: 064.5601 deg
RA of node: 356.6455 deg
Eccentricity: 0.0043697
Arg of perigee: 027.1614 deg
Mean anomaly: 333.1781 deg
Mean motion: 14.71587579 rev/day
Decay rate: 2.09e-06 rev/day^2
Epoch rev: 41981
Checksum: 339
Satellite: CO-55
Catalog number: 27844
Epoch time: 10287.46779528
Element set: 956
Inclination: 098.7106 deg
RA of node: 294.7407 deg
Eccentricity: 0.0009561
Arg of perigee: 182.8447 deg
Mean anomaly: 177.2683 deg
Mean motion: 14.20736764 rev/day
Decay rate: 9.2e-07 rev/day^2
Epoch rev: 37802
Checksum: 356
Satellite: CO-57
Catalog number: 27848
Epoch time: 10287.51487855
Element set: 903
Inclination: 098.7155 deg
RA of node: 293.9050 deg
Eccentricity: 0.0009209
Arg of perigee: 188.2322 deg
Mean anomaly: 171.8704 deg
Mean motion: 14.20526313 rev/day
Decay rate: 4.1e-07 rev/day^2
Epoch rev: 37798
Checksum: 328
Satellite: AO-51
Catalog number: 28375
Epoch time: 10286.49443589
Element set: 0798
Inclination: 098.0726 deg
RA of node: 273.3218 deg
Eccentricity: 0.0084771
Arg of perigee: 097.7931 deg
Mean anomaly: 263.2894 deg
Mean motion: 14.40702817 rev/day
Decay rate: 3.7e-07 rev/day^2
Epoch rev: 33054
Checksum: 343
Satellite: GENESAT1
Catalog number: 29655
Epoch time: 10216.61700559
Element set: 226
Inclination: 040.0059 deg
RA of node: 067.3006 deg
Eccentricity: 0.0005079
Arg of perigee: 297.8744 deg
Mean anomaly: 064.7087 deg
Mean motion: 16.44862838 rev/day
Decay rate: 1.0637092e-01 rev/day^2
Epoch rev: 20777
Checksum: 320
Satellite: CP3
Catalog number: 31129
Epoch time: 10286.58171256
Element set: 0698
Inclination: 097.9293 deg
RA of node: 319.7543 deg
Eccentricity: 0.0101488
Arg of perigee: 225.7945 deg
Mean anomaly: 133.4895 deg
Mean motion: 14.52315921 rev/day
Decay rate: 1.87e-06 rev/day^2
Epoch rev: 18504
Checksum: 330
Satellite: CO-65
Catalog number: 32785
Epoch time: 10287.28989428
Element set: 809
Inclination: 097.8817 deg
RA of node: 350.4873 deg
Eccentricity: 0.0013802
Arg of perigee: 257.7201 deg
Mean anomaly: 102.2459 deg
Mean motion: 14.81736445 rev/day
Decay rate: 6.37e-06 rev/day^2
Epoch rev: 13312
Checksum: 331
Satellite: KKS-1
Catalog number: 33493
Epoch time: 10287.83523949
Element set: 943
Inclination: 098.0995 deg
RA of node: 048.4463 deg
Eccentricity: 0.0021116
Arg of perigee: 112.9879 deg
Mean anomaly: 247.3576 deg
Mean motion: 14.81143110 rev/day
Decay rate: 7.34e-06 rev/day^2
Epoch rev: 9319
Checksum: 321
Satellite: SOHLA-1
Catalog number: 33496
Epoch time: 10287.72837639
Element set: 229
Inclination: 098.0660 deg
RA of node: 035.3082 deg
Eccentricity: 0.0006465
Arg of perigee: 173.7989 deg
Mean anomaly: 186.3305 deg
Mean motion: 14.69523232 rev/day
Decay rate: 2.02e-06 rev/day^2
Epoch rev: 9243
Checksum: 312
Satellite: TISAT-1
Catalog number: 36799
Epoch time: 10287.77646415
Element set: 216
Inclination: 098.1357 deg
RA of node: 348.2487 deg
Eccentricity: 0.0015448
Arg of perigee: 354.5383 deg
Mean anomaly: 005.5652 deg
Mean motion: 14.80193399 rev/day
Decay rate: 4.35e-06 rev/day^2
Epoch rev: 1400
Checksum: 321
Satellite: STUDSAT
Catalog number: 36801
Epoch time: 10286.79672968
Element set: 0102
Inclination: 098.1365 deg
RA of node: 347.1712 deg
Eccentricity: 0.0013981
Arg of perigee: 345.5616 deg
Mean anomaly: 014.5193 deg
Mean motion: 14.79706755 rev/day
Decay rate: 1.035e-05 rev/day^2
Epoch rev: 01385
Checksum: 309
/EX
SB KEPS @ AMSAT $ORB10287.W
Orbital Elements 10287.WEATHER
HR AMSAT ORBITAL ELEMENTS FOR WEATHER SATELLITES
FROM WA5QGD FORT WORTH,TX October 14, 2010
BID: ORB10287.W
TO ALL RADIO AMATEURS BT
Satellite: NOAA-10
Catalog number: 16969
Epoch time: 10287.52663626
Element set: 239
Inclination: 098.6471 deg
RA of node: 315.3225 deg
Eccentricity: 0.0011606
Arg of perigee: 221.1138 deg
Mean anomaly: 138.9181 deg
Mean motion: 14.27430473 rev/day
Decay rate: 1.29e-06 rev/day^2
Epoch rev: 25260
Checksum: 291
Satellite: NOAA-11
Catalog number: 19531
Epoch time: 10287.32320956
Element set: 248
Inclination: 098.7662 deg
RA of node: 014.3016 deg
Eccentricity: 0.0011380
Arg of perigee: 164.4403 deg
Mean anomaly: 195.7129 deg
Mean motion: 14.14937229 rev/day
Decay rate: -1.79e-06 rev/day^2
Epoch rev: 13798
Checksum: 303
Satellite: NOAA-12
Catalog number: 21263
Epoch time: 10287.38176840
Element set: 742
Inclination: 098.7636 deg
RA of node: 300.5230 deg
Eccentricity: 0.0012463
Arg of perigee: 176.8919 deg
Mean anomaly: 183.2351 deg
Mean motion: 14.25658626 rev/day
Decay rate: -8.3e-07 rev/day^2
Epoch rev: 938
Checksum: 305
Satellite: MET-3/5
Catalog number: 21655
Epoch time: 10286.91950311
Element set: 0939
Inclination: 082.5578 deg
RA of node: 224.7362 deg
Eccentricity: 0.0014875
Arg of perigee: 055.4078 deg
Mean anomaly: 304.8396 deg
Mean motion: 13.17025245 rev/day
Decay rate: 5.1e-07 rev/day^2
Epoch rev: 92130
Checksum: 304
Satellite: MET-2/21
Catalog number: 22782
Epoch time: 10287.53650754
Element set: 910
Inclination: 082.5484 deg
RA of node: 157.7727 deg
Eccentricity: 0.0023775
Arg of perigee: 069.1070 deg
Mean anomaly: 291.2633 deg
Mean motion: 13.83649250 rev/day
Decay rate: -1.0e-07 rev/day^2
Epoch rev: 86458
Checksum: 314
